星链-1209 (STARLINK-1209 )

导读

STARLINK-1209是美国SpaceX公司星链星座的一颗V1.0版本通信卫星,于2020年2月17日发射入轨。它是星链第一代组网卫星,采用氪离子推进系统,运行在近地轨道,配备Ku波段相控阵通信天线,可为全球提供低延迟宽带互联网服务。星链系统依托大规模卫星星座实现全球覆盖,该卫星设计寿命约5年,退役后会主动离轨再入大气层销毁,减少空间碎片隐患。

基本信息
目录编号:
45206
目录名称:
STARLINK-1209
国际标识:
2020-012AE
轨道中心:
EARTH
卫星名称:
星链-1209
卫星全名:
星链-1209 (STARLINK-1209 )
卫星状态:
在轨 (已飞行2353 天)
发射日期:
2020-02-17 UTC
国别 :
美国 (US)
星等 :
--
轨道信息
数据来源 国际轨道数据
星历时间: 2026-07-27T19:13:51+0800
13小时前
查看轨道信息
半长轴: 6718.611km
偏心率: 0.0003056
轨道倾角: 53.034°
近地点辐角 304.802°
升交点赤经 8.786°
平近点角 55.271°
近地点: 338.42km
远地点: 342.528km
周期: 91.344分钟
每日圈数: 15.764622
详细信息
固有亮度:
5
最大亮度:
2.5
卫星平台:
Starlink V1.0
覆盖范围:
全球
运营商:
太空探索技术公司
运营商所在国:
美国
制造商(研发单位):
太空探索技术公司
制造商所在国:
美国
使用方式:
暂无
卫星简介
星链(Starlink)计划是由太空探索技术公司(SpaceX)提出的一个巨型低轨卫星互联网星座项目,计划在2019年至2024年间在太空搭建由约1.2万颗卫星组成的“星链”网络,其中1584颗将部署在地球上空550千米处的近地轨道,并从2020年开始工作。该卫星仍在工作。
2D轨道图
3D轨道图
轨道高度分析图
轨道倾角分析图
轨道综合分析图
查看轨道综合分析图